This demonstration page uses our WeatherBlox Daily Observations layout. Learn more.

Hourly Observations for March 13, 2020

Temp ( °F °C ) Dew Point ( °F °C ) Humidity (%) Winds ( mph kmh ) Pressure ( in mb ) Visibility ( mi km ) Precip ( " mm )
12:15 am 00:15 Cloudy 54 12 46 8 77 77 SSE 6 9 29.97 1015 10 16.0934 0 0
12:35 am 00:35 Cloudy 54 12 46 8 77 77 SSE 7 11 29.96 1015 10 16.0934 0 0
12:55 am 00:55 Cloudy 52 11 46 8 82 82 SE 6 9 29.95 1014 10 16.0934 0 0
1:15 am 01:15 Cloudy 52 11 50 10 94 94 SSE 7 11 29.95 1014 10 16.0934 0 0
1:35 am 01:35 Cloudy 52 11 50 10 94 94 SSE 6 9 29.94 1014 7 11.26538 0.01 0.254
1:55 am 01:55 Cloudy 50 10 50 10 100 100 SE 5 7 29.94 1014 7 11.26538 0.03 0.762
2:15 am 02:15 Cloudy 50 10 50 10 100 100 SE 5 7 29.93 1013 5 8.0467 0.04 1.016
2:35 am 02:35 Cloudy 50 10 50 10 100 100 Calm 29.92 1013 5 8.0467 0.06 1.524
2:55 am 02:55 Cloudy 48 9 48 9 100 100 Calm 29.91 1013 4 6.43736 0.11 2.794
3:15 am 03:15 Cloudy 48 9 48 9 100 100 Calm 29.89 1012 2.5 4.02335 0.06 1.524
3:35 am 03:35 Cloudy 46 8 46 8 100 100 Calm 29.89 1012 3 4.82802 0.12 3.048
3:55 am 03:55 Cloudy 46 8 46 8 100 100 SE 8 13 29.86 1011 4 6.43736 0.19 4.826
4:15 am 04:15 Cloudy 46 8 46 8 100 100 SSE 8 13 29.83 1010 5 8.0467 0.01 0.254
4:35 am 04:35 Cloudy 48 9 48 9 100 100 Calm 29.82 1010 7 11.26538 0.01 0.254
4:55 am 04:55 Cloudy 48 9 48 9 100 100 Calm 29.83 1010 7 11.26538 0.01 0.254
5:15 am 05:15 Cloudy 48 9 48 9 100 100 Calm 29.83 1010 7 11.26538 0 0
5:35 am 05:35 Cloudy 48 9 48 9 100 100 Calm 29.84 1010 7 11.26538 0 0
5:55 am 05:55 Cloudy 46 8 46 8 100 100 Calm 29.84 1010 5 8.0467 0 0
6:15 am 06:15 Cloudy 46 8 46 8 100 100 S 3 6 29.83 1010 5 8.0467 0 0
6:35 am 06:35 Cloudy 46 8 46 8 100 100 Calm 29.83 1010 2.5 4.02335 0 0
6:55 am 06:55 Cloudy 46 8 46 8 100 100 S 5 7 29.83 1010 2 3.21868 0 0
7:15 am 07:15 Cloudy 46 8 46 8 100 100 SSW 3 6 29.83 1010 1.5 2.41401 0 0
7:35 am 07:35 Cloudy 46 8 46 8 100 100 Calm 29.82 1010 1 1.60934 0 0
7:55 am 07:55 Cloudy 46 8 46 8 100 100 S 3 6 29.83 1010 0.75 1.207005 0 0
8:15 am 08:15 Cloudy 46 8 46 8 100 100 Calm 29.83 1010 0.5 0.80467 0 0
8:35 am 08:35 Cloudy 46 8 46 8 100 100 WSW 3 6 29.84 1010 1 1.60934 0 0
8:55 am 08:55 Cloudy 46 8 46 8 100 100 W 5 7 29.84 1010 1.75 2.816345 0 0
9:15 am 09:15 Cloudy 48 9 48 9 100 100 SW 5 7 29.84 1010 2.5 4.02335 0 0
9:35 am 09:35 Cloudy 48 9 48 9 100 100 SW 3 6 29.84 1010 3 4.82802 0 0
9:55 am 09:55 Cloudy 50 10 50 10 100 100 W 6 9 29.86 1011 5 8.0467 0 0
10:15 am 10:15 Cloudy 50 10 50 10 100 100 W 7 11 29.87 1011 7 11.26538 0 0
10:35 am 10:35 Cloudy 50 10 50 10 100 100 WNW 5 7 29.88 1012 10 16.0934 0 0
10:55 am 10:55 Cloudy 52 11 52 11 100 100 WNW 7 11 29.88 1012 10 16.0934 0 0
11:15 am 11:15 Cloudy 52 11 52 11 100 100 undefined N/A 29.88 1012 10 16.0934 0 0
11:35 am 11:35 Mostly Cloudy 59 15 55 13 88 88 WSW 3 6 29.88 1012 10 16.0934 0 0
11:55 am 11:55 Partly Cloudy 63 17 55 13 77 77 WNW 12 19 29.88 1012 10 16.0934 0 0
12:15 pm 12:15 Partly Cloudy 64 18 55 13 73 73 WNW 16 26 29.87 1012 10 16.0934 0 0
12:35 pm 12:35 Partly Cloudy 66 19 54 12 64 64 W 10 17 29.88 1012 10 16.0934 0 0
12:55 pm 12:55 Partly Cloudy 68 20 52 11 56 56 WNW 16 26 29.88 1012 10 16.0934 0 0
1:15 pm 13:15 Partly Cloudy 68 20 46 8 46 46 W 23 37 29.89 1012 10 16.0934 0 0
1:35 pm 13:35 Partly Cloudy 70 21 46 8 43 43 WNW 21 33 29.89 1012 10 16.0934 0 0
1:55 pm 13:55 Sunny 70 21 45 7 40 40 WNW 20 31 29.89 1012 10 16.0934 0 0
2:15 pm 14:15 Sunny 70 21 43 6 38 38 WNW 25 41 29.89 1012 10 16.0934 0 0
2:35 pm 14:35 Sunny 70 21 41 5 35 35 NW 26 43 29.89 1012 10 16.0934 0 0
2:55 pm 14:55 Sunny 72 22 41 5 33 33 WNW 15 24 29.89 1012 10 16.0934 0 0
3:15 pm 15:15 Sunny 70 21 41 5 35 35 W 20 31 29.91 1013 10 16.0934 0 0
3:35 pm 15:35 Sunny 70 21 39 4 33 33 NW 18 30 29.91 1013 10 16.0934 0 0
3:55 pm 15:55 Sunny 70 21 39 4 33 33 W 21 33 29.92 1013 10 16.0934 0 0
4:15 pm 16:15 Sunny 68 20 37 3 33 33 NNW 14 22 29.93 1014 10 16.0934 0 0
4:35 pm 16:35 Sunny 68 20 36 2 30 30 NNW 17 28 29.93 1014 10 16.0934 0 0
4:55 pm 16:55 Sunny 66 19 34 1 30 30 NW 18 30 29.94 1014 10 16.0934 0 0
5:15 pm 17:15 Sunny 64 18 34 1 32 32 NW 18 30 29.96 1015 10 16.0934 0 0
5:35 pm 17:35 Sunny 64 18 34 1 32 32 NW 18 30 29.98 1015 10 16.0934 0 0
5:55 pm 17:55 Sunny 64 18 34 1 32 32 NW 16 26 29.99 1016 10 16.0934 0 0
6:15 pm 18:15 Sunny 63 17 32 0 32 32 NW 23 37 30.01 1016 10 16.0934 0 0
6:35 pm 18:35 Sunny 63 17 30 -1 30 30 NW 21 33 30.02 1016 10 16.0934 0 0
6:55 pm 18:55 Sunny 63 17 30 -1 30 30 NW 20 31 30.03 1017 10 16.0934 0 0
7:15 pm 19:15 Sunny 61 16 30 -1 31 31 NW 15 24 30.05 1018 10 16.0934 0 0
7:35 pm 19:35 Clear 61 16 28 -2 29 29 NNW 17 28 30.07 1018 10 16.0934 0 0
7:55 pm 19:55 Clear 61 16 28 -2 29 29 NNW 21 33 30.09 1019 10 16.0934 0 0
8:15 pm 20:15 Clear 59 15 28 -2 31 31 NNW 21 33 30.11 1020 10 16.0934 0 0
8:35 pm 20:35 Clear 59 15 30 -1 34 34 NNW 15 24 30.13 1020 10 16.0934 0 0
8:55 pm 20:55 Clear 59 15 30 -1 34 34 NW 14 22 30.14 1021 10 16.0934 0 0
9:15 pm 21:15 Clear 59 15 28 -2 31 31 WNW 16 26 30.15 1021 10 16.0934 0 0
9:35 pm 21:35 Clear 57 14 28 -2 33 33 NW 10 17 30.16 1021 10 16.0934 0 0
9:55 pm 21:55 Clear 55 13 27 -3 33 33 NW 13 20 30.18 1022 10 16.0934 0 0
10:15 pm 22:15 Clear 55 13 27 -3 33 33 WNW 18 30 30.18 1022 10 16.0934 0 0
10:35 pm 22:35 Clear 55 13 23 -5 28 28 WNW 22 35 30.18 1022 10 16.0934 0 0
10:55 pm 22:55 Clear 55 13 23 -5 28 28 NW 20 31 30.19 1022 10 16.0934 0 0
11:15 pm 23:15 Clear 55 13 23 -5 28 28 NW 21 33 30.2 1023 10 16.0934 0 0
11:35 pm 23:35 Clear 54 12 23 -5 30 30 NW 24 39 30.21 1023 10 16.0934 0 0
11:55 pm 23:55 Clear 54 12 23 -5 30 30 NW 18 30 30.22 1023 10 16.0934 0 0

Powered by AerisWeather